Weather History for Lumberton, NC

Change the Weather History Date:

Tuesday, June 10, 2014

  Actual Average Record
Temperature  
Mean Temperature 85 °F 77 °F  
Max Temperature 98 °F 88 °F 98 °F (2008)
Min Temperature 72 °F 66 °F 52 °F (2002)
Degree Days  
Heating Degree Days 0 0  
Month to date heating degree days 0 0  
Since 1 June heating degree days 0 0  
Since 1 July heating degree days 2945 2761  
Cooling Degree Days 20 12  
Month to date cooling degree days 124 108  
Year to date cooling degree days 412 358  
Since 1 June cooling degree days 124 108  
Growing Degree Days 34 (Base 50)    
Moisture  
Dew Point 72 °F    
Average Humidity 68    
Maximum Humidity 100    
Minimum Humidity 36    
Precipitation  
Precipitation 0.28 in 0.15 in 2.56 in (2013)
Month to date precipitation 1.06 1.63  
Year to date precipitation 18.32 16.70  
Sea Level Pressure  
Sea Level Pressure 29.91 in    
Wind  
Wind Speed 5 mph (SSW)    
Max Wind Speed 12 mph    
Max Gust Speed 18 mph    
Visibility 6 miles    
Events Rain , Thunderstorm    
T = Trace of Precipitation, MM = Missing Value Source: NWS Daily Summary

Daily Weather History Graph

Daily Weather History Graph

Search for Another Location

Airport:

Trip Planner

Search our weather history database for the weather conditions in past years. The results will help you decide how hot, cold, wet, or windy it might be!

Date:

Astronomy

Jun. 10, 2014 Rise Set
Actual Time 6:02 AM EDT 8:28 PM EDT
Civil Twilight 5:33 AM EDT 8:58 PM EDT
Nautical Twilight 4:57 AM EDT 9:34 PM EDT
Astronomical Twilight 4:17 AM EDT 10:14 PM EDT
Moon 5:57 PM EDT (6/10) 4:00 AM EDT (6/10)
Length of Visible Light 15h 24m
Length of Day
14h 25m
Waxing Gibbous, 92% of the Moon is Illuminated
Jun 10
Waxing Gibbous
Jun 13
Full
Jun 19
Last Quarter
Jun 27
New
Jul 5
First Quarter

Hourly Weather History & Observations

Time (EDT) Temp. Heat Index Dew Point Humidity Pressure Visibility Wind Dir Wind Speed Gust Speed Precip Events Conditions
12:30 AM 77.0 °F - 75.0 °F 94% 29.90 in 4.0 mi Calm Calm - 0.02 in Thunderstorm Partly Cloudy
12:54 AM 75.9 °F - 73.9 °F 94% 29.90 in 4.0 mi Calm Calm - 0.03 in Thunderstorm Scattered Clouds
1:12 AM 75.9 °F - 75.0 °F 97% 29.91 in 4.0 mi WSW 3.5 mph - N/A Thunderstorm Scattered Clouds
1:25 AM 75.9 °F - 73.9 °F 94% 29.92 in 2.0 mi West 9.2 mph - 0.04 in Rain , Thunderstorm Heavy Thunderstorms and Rain
1:47 AM 75.0 °F - 73.0 °F 94% 29.91 in 6.0 mi SSE 3.5 mph - 0.13 in Thunderstorm Mostly Cloudy
1:54 AM 75.0 °F - 73.0 °F 94% 29.91 in 6.0 mi SSE 4.6 mph - 0.13 in   Mostly Cloudy
2:54 AM 75.0 °F - 73.0 °F 94% 29.89 in 3.0 mi SSE 3.5 mph - N/A   Partly Cloudy
3:02 AM 75.0 °F - 73.0 °F 94% 29.90 in 2.5 mi South 3.5 mph - N/A   Partly Cloudy
3:09 AM 75.0 °F - 73.0 °F 94% 29.90 in 4.0 mi South 3.5 mph - N/A   Partly Cloudy
3:54 AM 75.0 °F - 73.0 °F 94% 29.90 in 5.0 mi Calm Calm - 0.01 in Thunderstorm Scattered Clouds
4:04 AM 75.0 °F - 73.0 °F 94% 29.91 in 2.5 mi Calm Calm - N/A Thunderstorm Scattered Clouds
4:12 AM 73.9 °F - 72.0 °F 93% 29.93 in 1.2 mi North - - 0.10 in Rain , Thunderstorm Light Thunderstorms and Rain
4:16 AM 72.0 °F - 69.1 °F 91% 29.91 in 0.8 mi Calm Calm - 0.14 in Rain , Thunderstorm Heavy Thunderstorms and Rain
4:22 AM 73.0 °F - 69.1 °F 87% 29.91 in 1.8 mi Calm Calm - 0.14 in Rain , Thunderstorm Light Thunderstorms and Rain
4:24 AM 73.0 °F - 69.1 °F 87% 29.91 in 3.0 mi Calm Calm - 0.14 in Rain , Thunderstorm Light Thunderstorms and Rain
4:52 AM 73.4 °F - 69.8 °F 88% 29.91 in 9.0 mi WSW 4.6 mph - 0.14 in   Scattered Clouds
4:54 AM 73.0 °F - 70.0 °F 90% 29.90 in 9.0 mi WSW 4.6 mph - 0.14 in   Scattered Clouds
5:54 AM 72.0 °F - 71.1 °F 97% 29.92 in 5.0 mi Calm Calm - N/A   Clear
6:15 AM 72.0 °F - 70.0 °F 93% 29.93 in 2.0 mi Calm Calm - N/A   Clear
6:32 AM 72.0 °F - 70.0 °F 93% 29.93 in 5.0 mi Calm Calm - N/A   Clear
6:54 AM 73.0 °F - 71.1 °F 93% 29.93 in 5.0 mi Calm Calm - N/A   Clear
7:54 AM 75.9 °F - 73.0 °F 91% 29.94 in 8.0 mi Variable 5.8 mph - N/A   Clear
8:54 AM 80.1 °F 84.5 °F 73.9 °F 81% 29.93 in 9.0 mi West 5.8 mph - N/A   Clear
9:54 AM 84.9 °F 91.4 °F 73.0 °F 67% 29.94 in 10.0 mi Variable 4.6 mph - N/A   Clear
11:54 AM 91.9 °F 97.4 °F 70.0 °F 48% 29.95 in 10.0 mi WSW 9.2 mph - N/A   Clear
1:54 PM 95.0 °F 100.7 °F 69.1 °F 43% 29.92 in 10.0 mi SW 6.9 mph - N/A   Scattered Clouds
3:54 PM 95.0 °F 99.0 °F 66.9 °F 40% 29.90 in 10.0 mi WSW 10.4 mph - N/A   Clear
5:54 PM 95.0 °F 99.5 °F 68.0 °F 41% 29.88 in 10.0 mi SW 9.2 mph - N/A   Clear
6:54 PM 91.9 °F 97.4 °F 70.0 °F 48% 29.88 in 10.0 mi South 6.9 mph - N/A   Clear
7:54 PM 89.1 °F 94.1 °F 70.0 °F 53% 29.89 in 10.0 mi SSW 4.6 mph - N/A   Clear
8:54 PM 84.9 °F 92.1 °F 73.9 °F 69% 29.91 in 10.0 mi South 4.6 mph - N/A   Clear
9:54 PM 82.0 °F 87.4 °F 73.0 °F 74% 29.93 in 10.0 mi South 3.5 mph - N/A   Clear
11:54 PM 80.1 °F 82.9 °F 69.1 °F 69% 29.94 in 10.0 mi South 5.8 mph - N/A   Clear